Temp
22 21 21 22 22 23 22 23 23 23 23 23 22 21 21 21 21 21 21 22 21 21 21 21 20 20 20 20 20 20 20 20 20 20 20 20 20 20 20 20 20 20 19 19 19 19 19 19 19 19 19 18 18 18 18 18 18 18 18 18 18 17 18 17 17 17 17 17 17 17 17 17 17 18 18 18 18 18 18 18 18 17 17 17 17
21 21 22 22 22 23 22 23 23 23 23 23 22 21 21 21 21 21 21 21 21 21 21 21 20 20 20 20 20 20 20 20 20 20 20 20 20 20 20 20 20 20 19 19 19 19 19 19 19 19 18 18 18 18 18 18 18 18 18 18 18 17 17 17 17 17 17 18 17 17 17 17 17 17 17 17 18 18 18 18 18 17 17 17 17
21 21 22 22 22 22 22 23 23 23 23 23 22 22 21 21 21 21 21 21 21 21 21 21 20 20 20 20 20 20 20 20 20 20 20 20 20 20 20 20 20 19 19 19 19 19 19 19 19 18 18 18 18 18 18 18 18 18 18 18 17 17 17 18 18 18 18 18 18 18 17 17 17 17 17 17 17 18 18 18 17 17 17 17 17
21 21 22 22 22 22 22 23 23 23 23 23 22 22 21 21 21 20 21 20 21 21 21 20 20 20 20 20 20 20 20 20 20 20 20 20 20 20 20 20 19 19 19 19 19 19 19 19 19 18 18 18 18 18 18 18 18 18 18 17 17 18 18 18 18 18 18 18 18 18 17 17 17 17 17 17 17 17 17 17 17 17 17 17 17
21 21 22 22 22 22 22 23 23 23 23 23 23 22 21 21 21 20 20 20 20 21 21 20 20 20 20 20 20 20 20 20 20 19 19 19 19 19 19 19 19 19 19 19 19 19 19 19 19 18 18 18 18 18 18 18 18 17 17 17 18 19 19 18 18 18 18 18 19 19 18 17 17 17 17 17 17 17 17 17 17 17 17 17 16
21 21 21 22 22 22 22 23 22 23 23 23 23 22 21 21 20 20 20 20 20 20 20 20 20 20 20 20 19 20 20 20 20 20 19 19 19 19 19 19 19 19 19 19 19 19 19 19 19 19 18 18 18 18 18 18 18 17 17 18 19 19 19 19 19 19 19 19 19 19 18 18 18 17 17 17 17 17 17 17 17 17 17 17 16
21 21 21 22 22 22 22 22 22 22 22 22 22 22 21 21 20 20 20 20 20 20 20 20 20 20 20 19 20 20 20 20 19 19 19 19 19 19 19 19 19 19 19 19 19 19 19 19 19 19 18 18 18 18 18 18 18 17 17 18 19 19 19 19 19 19 20 20 20 20 19 18 18 17 17 17 16 17 17 17 17 17 17 17 16
22 21 21 21 22 22 22 22 22 22 22 22 22 22 21 21 20 20 20 20 20 20 20 20 20 20 20 19 20 20 20 19 19 19 19 19 19 19 19 18 19 19 19 19 19 19 19 19 19 19 18 18 18 18 18 18 18 17 17 18 19 19 19 20 20 20 21 21 21 21 20 18 18 17 17 17 17 17 17 17 17 17 17 17 16
22 22 21 21 22 22 22 22 22 22 22 22 22 22 21 21 20 20 20 20 20 20 20 20 20 20 20 20 20 20 20 19 19 19 19 19 19 19 19 19 19 19 19 19 19 19 19 19 19 19 18 18 17 17 17 18 17 17 18 18 19 20 20 20 20 21 21 21 21 21 19 18 17 17 17 17 17 17 17 17 17 16 16 16 16
22 22 21 21 22 22 22 22 22 22 22 22 22 22 21 21 20 20 20 20 20 20 20 20 20 20 20 20 20 20 20 19 19 19 19 19 19 19 19 19 19 19 19 19 19 19 19 19 18 18 18 17 17 18 18 18 17 17 17 18 19 20 20 20 21 21 21 21 22 21 19 18 18 18 18 17 16 16 17 17 17 16 16 16 16
22 22 21 21 21 22 22 22 22 22 22 22 22 22 21 21 20 20 20 20 20 20 20 20 20 20 20 20 20 20 20 19 19 19 19 19 19 19 19 19 19 19 19 19 19 19 19 18 18 18 18 18 18 18 18 18 17 17 17 18 19 20 20 20 21 21 22 22 21 21 19 19 18 18 18 18 16 16 17 17 17 16 16 16 16
22 21 21 21 21 21 22 22 22 22 22 22 21 21 21 20 20 20 20 20 20 20 20 20 20 20 20 20 20 20 20 20 19 19 19 19 19 19 19 19 19 19 19 19 19 19 18 18 18 18 18 18 18 18 18 18 17 17 17 18 20 20 20 20 21 21 22 22 20 20 20 19 19 19 18 18 16 16 16 16 16 16 16 16 16
22 21 21 21 21 21 22 22 22 22 22 21 21 21 20 20 20 20 20 20 20 20 20 20 20 20 20 20 20 20 20 20 20 19 19 19 19 19 19 19 19 19 19 18 18 18 18 18 18 18 18 18 18 18 18 18 17 17 17 18 20 20 20 20 21 21 22 22 20 20 20 20 19 19 19 18 16 16 16 16 16 16 16 15 15
21 21 21 21 21 21 21 21 22 21 21 21 21 21 20 20 20 20 20 20 20 20 20 20 20 20 20 20 20 20 20 20 19 19 19 19 19 19 19 19 19 19 19 18 18 18 18 18 18 18 18 18 18 18 17 17 18 17 18 19 20 20 20 20 20 21 22 22 20 19 19 19 19 19 19 18 16 16 16 16 16 16 16 15 15
21 21 20 20 21 21 21 21 21 21 21 21 21 21 20 20 20 20 20 20 20 20 20 20 20 20 19 19 19 20 19 19 19 19 19 19 19 19 19 19 19 19 19 18 18 18 18 18 18 18 18 18 18 18 17 18 18 18 18 20 20 19 20 20 21 21 22 21 20 19 19 19 19 18 18 17 16 16 16 16 16 16 16 15 15
21 21 20 20 20 21 21 21 21 21 21 21 21 21 21 20 20 20 20 20 20 20 20 20 20 19 19 19 19 19 19 19 19 19 19 19 19 19 19 19 19 19 19 19 18 18 18 18 17 17 17 18 17 17 18 18 18 18 19 20 20 20 20 20 21 21 22 22 20 19 19 18 18 18 17 16 16 16 16 16 16 16 15 15 16
21 21 20 20 20 20 20 21 21 21 21 21 21 21 21 21 20 20 20 20 20 20 20 20 20 19 19 19 19 19 19 19 19 19 19 19 19 19 19 19 19 19 18 18 18 18 18 18 18 17 17 17 17 17 18 18 18 18 19 20 20 20 20 21 21 21 21 21 20 19 19 18 18 18 17 16 16 16 16 16 16 15 15 15 15
21 20 20 20 20 20 20 20 21 20 20 20 20 20 20 20 20 20 20 20 20 20 20 19 19 19 19 19 19 19 19 19 19 19 19 19 19 19 19 19 19 19 18 18 18 18 18 18 18 17 17 17 17 18 18 18 18 18 19 19 20 20 21 21 21 21 21 20 19 19 19 18 18 18 17 15 15 16 15 16 16 15 15 15 15
21 20 20 20 20 20 20 20 20 20 20 20 20 20 20 20 20 20 20 20 20 20 19 19 19 19 19 19 19 19 19 19 19 19 19 19 19 19 19 19 18 18 18 18 18 18 18 18 18 17 17 18 18 18 18 18 18 18 19 19 20 20 21 21 21 21 21 20 19 19 18 18 18 18 17 15 15 15 15 16 16 15 15 15 15
21 20 20 20 20 20 20 20 20 20 20 20 20 20 20 20 20 20 20 20 20 19 19 19 19 19 19 19 19 19 19 18 18 18 18 18 19 19 19 19 18 18 18 18 18 18 18 18 18 18 18 18 18 18 18 18 18 18 19 20 20 20 20 21 21 21 21 20 20 19 18 18 18 17 17 15 15 15 15 15 15 15 15 15 15
20 20 20 20 20 20 20 19 19 19 19 20 20 19 20 20 20 20 20 19 20 19 19 19 19 19 19 19 19 19 19 18 18 18 18 18 18 18 19 19 18 19 19 18 18 18 18 18 18 18 18 18 18 18 18 18 18 18 19 20 20 21 20 21 21 21 21 20 20 20 19 18 18 17 16 16 15 15 15 15 15 15 15 15 15
20 20 20 20 20 20 19 19 19 19 19 20 20 19 19 19 19 20 19 19 19 19 19 19 19 19 19 19 19 18 18 18 18 18 18 18 18 18 18 19 19 19 18 18 18 18 18 18 18 18 18 18 18 18 19 19 18 18 19 19 20 20 20 21 21 21 20 20 20 19 19 19 18 17 16 16 15 15 15 15 15 15 15 15 15
20 20 20 20 20 20 20 19 19 19 19 19 19 19 19 19 19 19 19 19 19 19 19 19 19 19 19 19 19 19 18 18 18 18 18 18 18 18 18 18 19 18 18 18 18 18 18 18 18 18 18 18 18 18 19 19 19 19 19 19 20 20 20 21 21 21 20 20 20 19 19 19 17 16 16 16 15 15 15 15 15 15 15 15 15
20 20 20 20 20 20 20 20 19 19 19 19 19 19 19 19 19 19 19 19 19 19 19 19 19 19 19 18 18 19 19 18 18 18 18 18 18 18 18 18 18 18 18 18 18 18 18 18 18 18 18 18 18 18 18 19 20 20 20 20 20 20 20 21 21 21 20 20 20 19 19 18 17 16 16 16 15 15 15 15 15 15 15 14 14
20 21 20 20 21 20 20 20 20 20 19 20 19 19 19 19 19 18 19 18 18 18 18 18 19 19 19 18 18 18 19 18 18 18 18 18 18 18 18 18 18 18 18 18 17 17 17 17 17 18 18 18 19 19 19 19 20 20 20 20 20 20 21 21 21 20 20 20 20 19 19 18 17 16 16 16 16 15 15 15 15 15 15 14 14
21 21 19 19 20 20 20 20 20 20 20 20 20 20 20 19 19 18 18 18 18 19 19 18 18 19 19 18 17 17 18 18 18 18 18 18 18 18 18 18 18 18 18 18 18 18 17 17 17 18 18 19 19 19 20 20 20 20 20 20 20 20 20 21 21 20 20 20 19 19 19 18 17 17 16 16 16 15 15 15 15 14 14 14 14
22 21 20 19 18 19 20 21 21 20 20 20 20 20 20 19 19 18 18 18 18 19 19 18 18 19 19 18 18 17 18 18 18 18 18 18 18 18 18 18 18 17 18 18 18 18 18 17 18 18 18 19 19 19 20 20 20 20 21 21 21 21 21 21 21 20 20 20 19 19 19 18 18 17 16 16 16 15 15 15 15 15 15 14 14
22 22 22 22 21 21 21 21 21 21 21 21 21 21 21 21 20 19 18 18 18 18 19 18 18 19 19 18 18 17 18 18 18 18 18 17 18 18 18 18 18 18 18 18 18 18 18 18 18 18 19 19 19 19 19 20 20 20 20 21 21 21 21 21 21 20 20 20 19 19 19 19 18 18 17 16 16 16 15 15 15 15 15 15 14
23 23 23 24 24 24 23 21 21 20 20 20 20 20 20 20 20 19 19 19 18 18 18 18 18 18 18 18 18 17 17 18 18 18 18 17 18 18 18 18 18 18 18 18 18 18 19 19 19 19 19 19 19 19 19 20 20 20 20 21 21 20 20 20 20 20 20 19 19 19 19 19 18 18 18 17 16 16 16 15 15 15 15 15 14
23 24 24 24 25 25 24 23 23 22 21 20 19 18 18 19 19 19 19 19 19 18 18 19 18 18 18 18 19 18 18 18 18 18 18 18 18 18 18 18 18 18 18 18 18 19 19 19 19 19 19 19 19 19 19 19 19 19 20 20 21 21 20 20 20 20 20 19 19 19 19 19 18 18 18 18 17 17 16 16 15 15 15 15 14
24 24 25 25 25 25 25 24 24 24 23 22 21 20 20 20 19 19 19 19 19 19 18 18 18 18 18 18 18 18 18 18 18 18 19 18 17 18 18 19 18 18 18 19 19 19 19 19 19 19 19 19 20 20 20 20 20 19 19 20 20 21 20 20 20 20 20 20 19 19 19 19 19 18 18 17 17 17 17 16 16 16 15 15 14
24 25 25 25 25 25 25 24 23 23 23 23 23 22 22 22 21 20 19 18 19 20 19 19 18 18 18 18 17 17 17 18 18 18 19 18 18 18 18 19 19 19 19 19 19 18 19 19 19 19 19 19 19 19 19 20 20 20 19 20 20 20 20 20 20 20 20 20 19 19 19 19 19 19 18 18 17 17 17 16 16 16 16 15 15
25 25 25 24 25 25 24 23 23 23 22 22 22 22 22 22 22 21 19 18 17 17 18 19 18 18 18 17 17 17 17 17 18 18 18 18 18 18 19 18 18 18 18 18 18 18 18 19 19 19 19 19 19 19 19 19 19 19 19 20 20 20 20 20 20 20 20 20 20 20 19 19 19 19 19 18 18 17 17 16 16 16 16 16 15
25 24 24 24 24 24 23 23 22 22 22 22 22 22 22 22 22 21 20 19 18 17 17 17 18 18 18 18 17 18 18 18 18 18 18 18 18 18 19 18 18 18 18 18 18 18 18 19 19 19 19 19 18 18 19 19 19 19 19 19 19 19 19 20 20 20 20 20 20 20 20 19 19 19 19 19 18 18 17 17 16 16 16 16 16
24 24 24 23 23 23 22 22 22 22 21 21 21 21 21 21 21 21 20 20 20 19 18 17 18 18 18 18 18 18 18 18 18 18 19 18 18 18 18 18 17 17 17 17 18 18 18 18 19 19 19 19 18 18 18 18 18 18 18 19 18 18 19 19 19 20 20 20 20 20 20 19 19 19 19 19 18 18 18 17 17 16 16 16 16
24 23 23 23 22 22 22 22 21 21 21 21 21 20 21 21 21 20 20 20 20 20 19 18 18 18 18 18 17 17 17 17 18 18 19 18 18 18 17 17 17 17 17 17 17 17 17 18 18 19 19 18 18 18 18 18 18 18 18 18 18 18 18 18 19 19 19 20 20 20 20 20 20 19 19 19 19 18 18 18 18 17 17 16 16
24 23 23 22 22 22 21 21 21 21 21 20 20 20 21 21 21 21 20 21 21 20 20 19 18 18 18 17 17 18 17 17 18 18 18 18 18 17 17 17 17 17 17 17 17 17 17 17 18 18 18 18 18 18 17 17 18 18 18 18 18 18 18 18 18 18 19 19 19 19 20 20 20 20 20 19 19 19 19 18 18 18 17 17 17
24 23 23 22 22 21 21 21 21 20 20 20 20 21 21 21 21 21 21 21 21 21 20 19 18 18 18 17 18 18 18 18 18 18 17 17 18 17 17 17 17 17 17 17 17 17 17 17 18 18 18 18 18 17 17 17 17 17 17 17 17 18 18 18 18 18 18 18 19 19 19 20 20 20 20 20 19 19 19 19 18 18 18 17 17
24 23 23 22 22 21 21 21 20 20 20 20 20 21 21 21 21 21 21 21 21 21 20 19 19 18 18 18 18 18 18 18 18 18 18 17 17 17 17 17 17 17 17 17 17 17 17 17 17 17 17 17 17 17 17 17 17 17 17 17 17 17 18 18 18 18 18 18 18 18 19 19 20 20 20 20 20 20 19 19 18 18 18 18 18
24 23 23 22 22 21 21 21 20 20 20 20 20 21 21 21 21 21 21 21 20 20 20 19 19 18 18 18 18 18 18 18 18 18 18 18 18 17 17 17 17 16 16 16 16 16 17 17 17 17 17 16 16 17 17 17 17 16 16 16 17 17 17 17 17 17 18 17 18 18 18 19 19 19 20 20 20 20 20 19 19 18 18 18 18
23 23 23 22 22 21 21 21 20 20 20 20 21 21 21 21 21 21 21 21 20 20 19 19 18 18 18 18 18 18 18 18 18 18 18 18 18 17 17 17 17 16 16 16 17 16 17 17 17 17 17 16 17 17 17 17 16 16 16 16 16 16 16 17 17 17 17 17 17 18 18 18 19 19 19 19 19 20 20 19 19 19 19 18 18
23 23 23 22 22 21 21 21 20 20 21 21 21 22 22 22 22 21 21 21 20 20 19 18 18 18 18 18 18 18 18 18 18 18 18 18 18 17 17 16 16 16 16 16 16 16 16 16 16 16 17 16 17 17 17 16 16 16 16 16 16 17 17 16 16 16 17 17 17 17 17 18 18 18 18 19 19 19 19 19 19 19 19 19 18
23 23 23 23 22 22 21 21 21 21 21 21 22 22 21 21 21 21 21 20 20 19 19 18 18 18 17 17 17 18 18 18 18 18 18 18 18 18 17 17 16 16 16 15 16 16 16 16 16 16 16 16 16 16 16 16 16 16 16 16 16 16 16 16 16 16 16 16 16 17 17 18 18 18 18 18 18 18 19 19 19 19 19 19 19
22 22 23 23 22 22 21 21 21 21 21 21 21 21 21 21 21 21 20 20 19 19 19 18 18 18 17 17 17 17 18 18 18 18 18 18 18 18 18 17 17 17 17 16 16 16 16 16 16 16 16 16 16 16 16 16 16 16 16 16 16 16 16 16 16 16 16 16 16 16 17 17 17 18 18 18 18 18 18 18 18 18 18 19 19
22 22 22 23 22 22 21 21 21 21 21 21 21 20 20 20 20 20 20 19 19 19 19 18 18 18 17 17 17 17 17 18 18 18 18 18 18 18 18 18 17 17 17 17 17 17 17 17 16 16 16 16 15 15 15 15 15 15 16 16 15 16 16 15 16 16 16 16 16 16 16 16 17 17 17 18 18 18 18 18 18 18 18 18 19
21 22 21 21 22 22 21 21 21 21 21 21 20 20 20 19 20 20 19 19 19 19 19 19 18 18 18 17 17 17 17 17 17 17 17 17 17 17 18 18 17 17 17 17 18 18 17 17 16 16 16 16 15 15 15 14 14 14 15 16 15 15 15 15 16 16 16 16 16 16 16 16 16 16 17 17 17 18 18 18 18 19 18 18 18
21 21 20 20 21 22 21 21 21 21 21 20 20 20 20 19 20 20 20 20 19 19 19 19 18 18 17 17 17 17 17 17 17 17 17 17 17 17 17 17 17 17 17 17 17 17 17 16 16 16 16 16 16 15 14 14 14 14 14 15 15 15 15 15 16 15 16 16 16 16 16 16 16 16 16 17 17 17 18 18 18 19 19 18 18
20 20 19 19 21 22 21 21 21 21 21 20 20 20 20 20 20 20 20 20 20 19 19 19 18 18 17 17 17 17 17 17 17 17 17 16 16 17 17 17 18 17 17 17 16 16 16 16 16 16 16 16 16 16 15 15 15 15 15 15 14 15 15 15 15 15 15 15 16 16 16 16 16 17 17 17 17 17 18 19 19 19 19 19 18
21 20 18 18 21 22 21 21 21 21 21 20 20 20 20 20 20 20 20 20 19 19 19 18 18 18 18 17 17 17 17 17 17 17 16 16 16 16 17 17 17 17 17 16 16 16 16 16 16 16 16 16 16 16 16 16 16 15 15 16 15 15 15 15 15 15 15 15 16 17 16 16 16 17 17 17 17 18 18 18 19 19 19 19 19
21 20 17 17 20 22 21 21 21 21 20 20 20 20 20 20 20 21 20 20 19 19 19 18 18 18 18 18 17 17 17 17 17 17 16 16 16 16 16 16 17 17 16 16 15 15 15 15 15 16 15 15 15 15 16 16 16 16 16 16 16 16 16 15 15 16 16 16 16 17 17 17 17 17 18 18 18 18 18 18 18 18 19 19 19
20 20 19 17 18 21 21 21 21 21 20 20 20 20 20 20 20 21 20 20 20 19 19 18 18 18 18 18 17 17 17 16 16 16 16 16 16 16 16 16 16 16 16 16 16 15 15 15 15 15 15 15 15 15 15 15 15 16 16 16 16 16 16 16 16 16 16 16 16 16 17 18 18 18 18 18 18 18 18 18 18 18 19 19 19
Height
756 756 759 760 763 763 765 766 768 769 770 772 773 775 777 779 780 782 783 784 786 788 788 790 791 792 793 794 795 796 797 797 798 799 799 800 800 801 802 802 803 804 805 806 807 807 808 808 809 809 809 810 811 811 812 812 812 813 813 814 815 816 816 817 817 818 818 819 819 820 821 821 822 823 823 823 823 823 823 823 823 822 822 822 823
754 756 759 761 763 763 766 766 768 769 770 772 773 776 777 779 780 782 784 785 787 788 790 791 792 793 794 795 796 797 798 799 799 800 801 801 802 802 803 803 804 805 806 807 807 808 809 809 810 810 811 811 811 813 813 813 813 814 815 815 816 816 817 818 818 819 819 819 820 820 821 822 823 824 824 824 824 824 824 824 824 824 824 824 824
752 756 758 761 763 763 766 767 768 769 771 772 774 776 777 780 781 783 784 786 787 789 791 791 793 794 795 796 797 798 799 800 800 801 802 802 803 803 804 805 805 806 806 807 808 809 809 810 811 811 812 812 813 814 814 814 814 815 815 816 817 817 818 818 819 820 820 820 820 820 821 822 823 824 825 825 825 825 825 825 825 825 825 825 825
753 755 758 761 763 764 766 767 769 770 771 772 774 776 778 780 781 784 785 787 788 790 791 792 794 795 797 797 798 800 800 801 801 802 803 804 804 804 805 805 806 807 807 808 809 809 810 811 812 812 813 813 814 814 815 815 815 816 816 817 817 818 819 819 820 820 821 821 820 821 821 822 824 826 826 827 827 827 827 827 827 826 826 826 826
754 755 759 761 763 765 766 767 769 770 772 773 775 776 778 780 782 784 786 787 789 790 792 793 795 796 798 798 800 800 801 802 802 803 804 804 805 805 806 806 807 808 808 809 809 810 811 812 812 813 814 814 815 815 816 816 816 816 817 817 818 820 820 820 821 821 822 822 822 823 823 823 825 827 827 828 828 828 829 829 828 828 828 827 827
754 755 759 761 764 765 767 768 769 771 772 774 775 777 779 781 783 785 786 788 789 791 793 794 795 797 798 799 801 801 802 802 803 804 804 805 806 806 807 807 808 808 809 809 810 811 812 813 813 814 814 815 816 816 817 817 817 817 818 818 819 820 820 821 821 822 822 823 823 824 825 823 825 827 829 829 829 830 830 830 829 829 829 829 829
754 757 760 761 764 766 767 768 770 772 773 775 776 778 779 781 783 785 787 788 790 792 793 795 796 798 799 800 801 802 803 803 804 805 805 806 807 807 808 808 809 809 810 810 811 812 812 813 814 815 815 815 816 817 818 818 818 818 819 819 820 821 821 822 822 823 823 824 824 825 826 824 825 828 830 831 831 831 831 831 831 831 830 830 830
756 759 760 762 765 766 768 769 771 772 774 775 776 778 780 782 784 785 787 789 791 792 794 795 797 798 800 801 802 803 804 804 805 805 807 807 807 808 808 809 809 810 811 811 812 812 813 814 814 815 815 816 817 818 818 818 819 819 819 820 821 821 821 822 822 823 823 824 825 826 826 825 826 828 831 832 832 832 832 832 831 831 831 831 831
757 759 761 764 765 767 769 770 772 773 774 776 777 779 781 783 784 786 788 789 791 792 794 796 797 799 800 802 802 804 804 805 806 806 807 807 808 808 809 809 810 811 811 811 812 813 814 814 815 815 816 816 817 818 819 819 819 819 820 821 821 822 822 822 822 823 823 825 826 827 826 825 827 829 831 832 832 832 832 833 832 832 832 832 832
758 760 763 764 766 768 769 771 772 773 775 777 778 780 782 784 785 786 788 790 792 793 795 796 798 799 800 802 803 804 805 805 806 807 807 808 808 808 809 810 811 811 811 812 812 813 814 815 815 816 816 816 817 818 819 820 820 820 821 821 822 822 822 822 822 822 823 826 827 826 826 826 828 830 831 832 833 833 833 833 833 833 833 833 834
759 762 763 764 767 768 770 772 773 774 776 778 779 781 783 785 786 787 789 790 792 794 795 797 798 800 801 802 803 804 805 806 807 807 808 808 808 809 810 810 811 812 812 813 813 814 814 815 816 816 817 817 818 818 819 820 820 821 821 822 822 822 823 823 823 822 824 827 826 826 826 827 829 830 831 832 833 834 833 833 833 834 834 834 834
761 762 763 765 767 769 771 773 774 776 777 779 780 782 784 785 787 788 790 791 793 795 796 798 799 800 801 803 804 805 806 807 807 808 809 809 809 809 810 811 812 812 813 813 813 814 815 816 816 817 817 818 818 818 819 820 821 821 821 822 822 823 823 823 823 823 825 827 826 826 827 828 830 831 831 832 833 834 834 834 834 834 834 835 835
762 763 764 767 768 771 772 774 776 777 778 780 781 783 785 786 788 789 790 792 794 796 797 799 799 801 802 803 805 805 806 807 808 809 810 810 810 810 811 812 812 813 813 814 814 814 815 816 817 818 818 818 819 819 820 820 821 821 821 822 823 823 823 823 823 823 826 827 826 827 828 829 830 831 832 832 833 834 834 835 835 835 835 835 836
763 765 766 768 770 772 773 776 777 778 780 781 782 784 785 787 788 789 791 793 794 796 797 799 800 801 802 804 805 806 807 807 809 810 810 810 810 811 811 812 813 814 814 814 814 815 816 816 818 818 818 819 819 820 820 820 821 821 822 822 823 823 823 823 823 823 827 828 827 828 829 829 830 831 832 832 834 835 835 835 835 836 836 836 837
764 765 768 770 771 773 775 777 778 780 781 782 784 784 786 788 789 790 792 793 795 796 798 799 800 802 803 805 805 806 807 808 809 810 811 811 811 811 812 813 813 814 814 815 815 816 817 817 818 818 819 819 820 820 820 821 821 821 822 822 823 823 824 824 823 824 827 828 828 828 829 829 830 832 832 833 834 835 835 836 836 836 836 837 837
765 766 768 770 772 774 776 778 780 781 782 783 784 785 787 788 790 791 792 794 795 797 798 800 801 803 804 805 806 807 808 809 810 811 811 812 812 812 813 814 814 815 815 815 816 817 817 818 819 819 819 820 820 821 821 821 821 821 821 822 823 824 824 824 824 825 828 829 828 828 829 830 831 832 832 834 835 835 836 836 836 836 837 837 837
767 769 770 771 774 776 777 779 781 782 783 784 785 786 788 789 791 792 794 795 796 798 799 801 802 804 805 806 807 807 809 810 811 811 812 812 813 813 814 815 815 816 816 816 817 817 818 819 819 819 820 820 821 821 821 821 821 821 821 822 823 824 824 825 826 826 828 829 828 828 830 831 832 832 833 835 836 836 836 836 837 837 837 838 838
768 770 771 773 775 777 778 780 781 783 784 784 786 787 788 790 791 792 795 796 797 799 800 802 803 804 805 806 807 808 809 811 811 812 813 813 814 815 815 816 816 817 816 817 817 818 819 819 820 820 820 821 821 821 822 822 822 822 822 822 823 824 825 825 826 827 829 829 828 829 830 831 832 833 833 835 836 836 837 837 837 837 838 838 838
768 770 771 772 774 777 778 780 782 783 784 785 787 788 789 790 791 793 795 797 798 799 801 802 803 805 805 807 808 808 810 811 812 813 814 814 815 815 816 816 817 817 817 817 818 818 819 820 820 821 821 822 821 822 822 822 822 822 823 823 823 824 825 825 826 828 829 829 829 830 830 832 833 833 834 835 837 837 837 837 838 838 838 839 839
769 770 771 772 773 777 778 781 783 784 786 785 786 788 789 790 792 794 795 797 798 799 801 802 803 805 806 807 808 809 811 812 813 814 814 815 815 816 816 817 817 818 818 818 818 819 820 820 821 821 822 822 822 822 822 823 823 823 823 823 824 824 825 825 826 828 828 828 830 830 831 832 833 833 834 836 837 837 838 838 838 838 839 839 839
771 772 772 773 774 777 779 782 784 785 786 785 787 788 789 791 792 794 795 797 799 800 801 802 804 805 806 807 808 809 811 812 814 814 815 816 816 816 816 817 817 818 819 819 819 819 820 821 821 822 822 822 823 822 823 823 823 823 823 823 824 824 825 826 827 828 827 828 830 831 832 832 833 834 834 836 837 837 838 838 839 839 839 840 840
771 772 772 774 776 779 781 783 784 785 786 786 788 788 790 791 792 794 795 797 799 801 801 803 804 805 807 807 808 809 810 812 813 814 815 816 816 816 817 818 818 818 819 819 819 820 820 821 822 822 823 823 823 823 823 823 823 824 824 823 824 824 825 826 827 828 827 828 829 831 832 832 833 834 835 836 837 837 838 838 839 839 840 840 841
772 773 775 776 778 780 782 783 784 785 786 787 788 789 790 790 792 793 795 798 800 801 802 803 804 805 807 807 808 809 810 811 811 813 814 816 816 816 817 817 817 818 818 819 819 820 820 821 822 823 823 823 823 823 823 823 823 823 824 824 824 824 825 826 827 828 827 828 829 830 831 832 833 834 836 837 837 837 838 839 839 840 840 840 841
772 773 775 778 779 781 782 783 783 785 786 787 788 789 790 790 791 793 795 798 800 802 802 803 804 805 806 806 807 808 808 809 811 813 814 815 815 816 817 817 817 817 818 818 819 820 820 821 822 823 823 823 823 823 823 823 823 823 824 824 824 825 825 826 827 827 827 828 829 830 831 831 832 834 836 837 837 838 838 839 839 840 840 841 841
770 771 774 776 778 781 781 781 783 784 785 785 787 788 788 790 791 793 795 798 800 802 803 804 804 805 806 807 808 809 808 809 810 812 813 814 814 816 816 816 817 816 817 818 819 819 820 820 821 822 823 823 822 823 823 823 823 823 823 824 824 825 825 826 827 827 827 828 829 830 831 831 832 833 835 836 837 838 838 839 839 840 840 841 841
770 771 774 776 778 781 780 780 782 783 784 785 786 787 788 789 791 793 795 797 799 800 802 803 803 804 805 807 808 809 809 809 810 812 813 814 815 816 816 817 817 816 817 818 819 819 820 820 820 821 822 822 823 823 823 823 824 824 824 825 825 826 825 826 827 827 827 828 829 830 831 831 832 833 835 836 837 838 839 839 839 840 840 841 841
769 770 773 776 778 780 781 780 781 783 785 786 787 788 790 791 792 794 795 797 799 799 800 801 803 802 803 805 807 808 809 810 811 812 813 814 815 815 815 816 816 817 817 818 819 819 820 820 821 821 822 823 823 823 823 823 824 824 824 825 825 826 826 826 827 827 827 829 829 830 831 831 832 833 834 835 836 837 838 839 840 840 840 841 841
766 768 770 772 774 777 778 779 780 783 784 786 787 788 790 791 791 792 794 796 798 799 800 801 802 801 802 805 806 808 809 810 811 812 813 814 814 813 815 815 816 817 817 817 818 819 820 820 821 821 822 823 823 823 823 824 824 824 824 825 825 826 825 826 827 827 827 829 830 830 831 831 832 832 833 835 836 837 838 839 840 840 840 840 841
765 766 768 769 771 773 776 778 779 781 783 785 787 789 791 791 791 792 794 796 798 800 801 801 802 802 803 805 806 807 809 810 811 811 813 813 813 813 815 815 816 817 817 817 817 818 819 820 821 821 822 823 823 823 823 824 824 824 824 825 825 826 826 826 827 828 828 828 830 830 831 831 832 833 833 834 835 836 837 839 839 839 840 840 841
766 766 767 768 769 771 773 776 777 780 783 785 787 789 791 792 793 794 795 795 797 799 801 801 801 802 804 804 804 805 808 810 810 810 811 812 813 814 814 814 815 816 816 816 817 817 818 818 819 820 822 823 823 823 823 824 824 825 825 825 825 826 826 827 828 828 828 828 829 830 831 832 832 833 834 834 834 835 837 838 839 839 839 840 840
765 766 767 767 769 770 772 774 776 779 781 784 786 788 790 790 792 793 793 794 795 796 798 799 800 802 802 802 803 805 807 809 810 810 811 812 813 814 813 813 813 814 814 814 815 816 817 817 817 819 821 823 823 823 823 824 824 825 825 825 825 825 826 827 828 828 829 829 829 830 831 832 833 833 834 835 834 835 836 837 838 839 839 839 840
765 765 767 768 770 770 772 774 776 778 780 782 784 786 788 789 790 791 792 793 795 796 796 797 799 801 801 802 804 806 807 808 810 810 810 811 812 813 813 812 812 812 813 813 814 815 816 817 817 818 821 822 823 823 823 823 824 824 825 825 824 825 826 827 827 828 829 829 829 830 831 832 833 833 834 834 835 835 836 837 838 838 839 839 840
767 767 769 770 771 771 772 775 777 779 780 781 783 785 786 787 789 790 791 793 795 798 798 797 798 800 800 802 804 806 807 808 809 810 810 810 811 812 811 811 812 812 813 813 814 815 816 817 818 819 821 822 823 823 822 823 824 824 824 824 824 825 826 826 827 828 829 830 830 830 831 831 832 833 834 834 835 835 836 837 838 838 839 839 840
769 770 771 772 772 772 774 776 778 779 780 781 782 784 785 787 788 789 791 793 795 798 799 798 798 799 800 801 802 804 806 807 808 809 809 810 810 811 810 810 812 813 814 814 815 816 817 817 818 820 821 822 823 823 823 823 824 824 824 824 824 825 825 826 827 828 829 829 830 830 830 831 831 832 833 834 834 835 836 837 838 838 839 839 839
770 771 772 773 773 774 776 777 778 779 780 781 782 783 784 786 787 788 791 793 794 795 796 797 798 798 799 800 801 802 805 807 807 808 808 809 809 809 810 811 813 814 814 814 815 816 817 817 818 819 820 822 823 823 823 823 823 823 824 824 824 824 825 825 826 827 828 829 830 830 830 830 831 831 832 833 834 834 835 836 837 838 838 839 839
770 771 772 773 774 775 776 777 778 779 779 780 781 783 784 785 787 788 790 791 793 794 794 796 797 798 799 801 802 803 805 807 807 807 808 808 809 809 811 811 813 813 814 815 815 816 816 816 817 818 819 821 823 823 823 823 823 824 824 824 824 825 825 825 826 826 827 828 829 830 830 830 830 831 831 832 833 833 834 835 836 837 838 838 838
770 771 772 773 774 775 776 777 778 779 779 781 782 783 784 786 787 788 790 791 792 793 794 795 796 798 800 801 802 803 805 805 806 807 807 807 808 809 810 811 812 812 813 814 814 814 814 814 816 817 818 820 822 823 823 823 824 824 825 825 825 825 825 825 826 826 827 827 828 829 830 830 830 830 830 830 831 832 833 834 835 836 837 837 838
770 771 771 772 774 775 776 777 778 779 780 781 782 783 785 786 787 788 789 790 792 793 794 795 797 799 800 801 802 802 803 804 805 805 806 807 807 808 809 810 811 812 812 813 812 812 812 813 814 816 817 819 820 822 823 824 824 825 825 825 825 825 825 825 825 826 826 826 827 827 828 829 830 830 830 830 830 830 831 833 834 835 836 836 837
769 770 770 772 774 775 777 778 779 779 780 781 783 784 785 786 787 788 789 790 792 793 794 795 797 799 800 801 802 802 803 803 804 804 805 807 807 807 808 808 809 810 811 811 811 810 811 813 814 815 817 818 820 821 822 823 824 825 825 826 825 825 825 825 825 825 825 825 825 826 826 827 828 829 830 830 830 830 830 831 832 833 834 835 836
768 768 770 772 774 775 777 778 779 780 781 782 783 784 785 786 787 788 789 790 792 793 795 796 797 799 801 802 802 803 804 804 804 804 804 805 806 806 807 807 807 809 809 809 809 809 811 812 813 815 817 818 820 820 821 822 823 824 825 826 825 825 824 824 824 824 824 824 824 825 825 825 826 827 828 829 830 830 829 830 831 831 833 834 835
767 768 769 772 774 775 776 778 779 780 781 781 782 784 785 786 787 788 789 790 792 793 795 796 798 800 801 802 803 803 804 804 804 804 804 805 805 806 806 806 807 808 808 807 807 809 811 812 813 814 816 818 819 819 821 822 822 823 825 826 825 825 824 824 823 823 823 823 823 824 825 825 826 826 827 827 829 830 829 829 829 830 831 832 833
766 768 770 772 774 774 776 777 778 779 780 781 782 783 784 786 787 788 789 790 792 793 795 797 799 800 801 802 803 803 804 804 804 804 805 805 805 805 805 806 807 808 808 808 807 808 810 812 813 814 815 817 818 819 820 821 821 823 825 826 825 825 824 823 823 823 822 823 823 823 824 825 826 826 826 827 827 829 829 829 829 829 830 831 831
766 769 770 772 774 774 775 776 778 779 779 781 782 783 784 785 786 787 788 790 792 794 796 797 799 801 802 802 803 803 803 804 804 804 805 805 805 806 806 807 808 808 809 810 809 809 810 811 813 814 815 817 819 820 820 820 821 823 825 826 826 825 824 823 822 822 822 823 823 823 824 825 826 827 827 827 827 828 827 827 828 828 829 829 829
765 768 770 772 773 773 773 774 776 777 778 780 781 783 784 785 786 787 788 790 793 795 796 798 800 801 802 803 803 803 804 804 804 804 805 805 805 806 807 807 808 809 809 810 810 810 810 811 812 814 815 817 819 819 820 820 821 823 825 826 826 827 827 825 823 823 823 823 823 824 825 825 825 827 827 827 827 827 827 826 826 827 827 827 828
763 767 769 770 771 771 771 772 774 775 777 779 780 781 784 785 786 788 789 791 794 795 797 799 800 802 802 803 804 804 804 804 805 805 806 806 806 806 807 808 809 810 810 810 810 811 811 811 812 813 815 817 818 819 820 820 822 824 825 826 827 828 828 825 824 824 823 824 824 824 825 824 825 826 826 826 826 826 826 826 825 825 826 826 827
762 765 769 770 769 769 769 770 772 774 775 777 779 781 783 785 786 788 790 792 794 795 797 799 801 802 803 804 804 805 805 805 806 806 806 807 807 807 808 808 809 809 810 810 810 811 812 812 813 814 816 817 818 820 821 821 823 825 825 826 826 827 826 825 826 825 824 824 825 825 824 824 825 826 826 826 826 825 825 825 824 824 825 825 826
762 765 770 771 768 767 767 768 770 771 774 775 777 780 782 784 786 788 790 792 793 795 797 799 801 802 803 804 805 806 806 807 807 807 807 808 808 808 809 809 810 810 810 810 811 812 813 814 815 815 816 817 818 819 821 822 823 824 825 825 825 826 825 825 825 826 826 825 824 824 824 824 825 825 825 826 825 825 824 824 824 824 824 824 825
760 764 771 771 767 765 765 765 767 769 771 774 776 779 781 783 785 787 789 792 793 795 797 799 801 803 804 805 805 806 807 808 808 809 809 809 810 810 810 810 811 811 812 812 813 813 814 814 815 815 817 817 818 819 820 821 822 823 823 824 825 825 825 825 825 826 827 827 825 824 824 824 824 823 824 824 824 824 823 823 823 822 822 823 824
756 762 771 772 766 762 763 763 765 767 769 772 775 777 780 781 784 786 788 791 794 796 798 799 801 803 804 805 806 807 808 808 809 810 810 811 811 811 811 811 811 812 812 813 814 815 815 815 816 816 817 817 818 819 819 821 821 822 822 823 823 824 824 824 825 825 826 827 826 824 823 823 822 822 823 823 823 823 823 822 822 821 821 822 822
753 758 768 773 767 760 760 760 762 764 767 770 773 776 779 780 782 785 787 790 793 796 798 800 801 803 804 805 806 808 809 809 810 811 811 812 812 812 812 812 813 813 813 814 815 815 816 816 817 817 817 818 819 819 819 820 821 821 822 822 822 823 824 824 824 825 825 826 825 823 822 822 822 821 821 821 821 821 821 821 821 820 820 820 820
751 754 760 767 767 760 757 757 759 761 765 768 772 774 777 779 781 783 786 789 792 795 797 799 801 803 804 806 807 808 809 810 811 811 812 812 813 813 813 814 814 814 815 815 816 816 817 817 818 818 818 819 819 819 820 820 821 821 821 822 822 823 823 824 825 825 825 825 825 824 823 822 822 821 820 820 820 820 820 820 819 819 819 818 819
Wind_Speed
23 27 28 26 26 24 23 22 20 20 19 18 17 17 16 16 15 15 16 15 16 16 15 14 14 13 13 14 13 13 13 13 12 12 11 11 11 11 11 11 11 12 13 12 12 12 11 12 13 12 13 15 15 16 15 15 16 17 16 17 17 17 17 17 17 18 19 18 18 18 17 17 16 15 13 10 11 14 13 13 15 15 15 15 14
25 29 28 26 26 25 23 22 21 20 19 18 17 16 16 16 15 15 15 15 16 16 15 15 13 13 14 14 13 14 14 13 13 12 11 11 10 9 9 9 10 10 11 11 10 10 10 12 12 12 14 15 15 15 14 13 14 14 14 14 15 15 15 15 15 16 16 16 16 18 17 16 15 14 11 9 12 15 15 14 14 15 14 13 13
27 28 29 27 26 25 23 22 21 20 20 19 17 16 15 15 16 15 15 15 17 17 15 15 14 13 14 14 14 14 14 13 12 11 10 10 9 9 8 8 9 9 10 10 10 10 10 12 13 13 14 14 14 14 13 13 12 12 12 12 14 14 14 14 14 15 14 15 17 18 17 16 15 15 12 10 13 15 14 14 14 15 14 13 13
26 28 29 27 26 25 24 23 22 21 20 19 18 16 15 15 16 15 15 15 16 17 16 15 14 12 13 14 14 13 13 13 12 11 10 9 9 9 8 9 9 8 9 9 10 10 10 12 13 13 13 14 14 13 12 12 12 11 11 12 13 14 14 14 14 14 14 17 19 18 16 17 16 16 14 12 13 14 14 13 13 13 14 13 14
26 28 30 27 26 25 24 23 22 21 20 20 18 17 16 15 15 15 15 15 16 17 16 16 14 12 12 14 14 13 13 13 12 11 10 9 9 9 9 9 8 8 8 9 10 10 10 12 13 12 13 13 12 12 11 11 11 11 11 11 12 13 14 14 13 13 13 14 15 15 14 16 16 15 15 14 14 14 14 13 12 12 12 12 13
26 29 30 27 26 24 24 23 22 21 20 19 18 17 16 15 15 15 16 16 16 17 16 16 14 13 13 14 14 13 13 12 11 10 9 9 9 9 8 8 8 8 8 9 10 9 10 11 11 11 13 13 11 12 11 10 10 10 10 10 12 13 13 13 12 11 11 10 10 11 13 15 15 14 13 13 13 12 12 11 12 12 11 11 12
26 27 27 27 26 24 24 23 22 21 20 19 18 16 15 15 15 15 16 16 16 16 16 15 14 13 14 14 14 13 13 12 11 10 10 9 9 9 8 8 8 8 8 8 8 8 10 11 10 11 12 12 11 10 10 9 8 9 9 10 11 12 12 12 11 10 9 8 7 10 12 13 13 13 13 12 11 10 10 10 10 11 11 11 11
24 24 23 26 26 25 24 23 22 21 20 19 18 16 16 16 16 16 16 17 17 16 16 15 14 14 15 15 14 13 12 11 10 11 11 10 9 9 9 9 9 9 8 8 7 8 9 9 10 11 12 12 11 10 9 7 7 8 7 8 9 11 12 11 10 10 8 7 7 8 11 12 14 15 14 11 10 8 9 9 8 10 11 11 11
23 22 22 25 26 25 24 23 22 21 20 19 18 16 16 16 16 17 17 17 17 17 16 15 14 15 15 14 14 12 11 11 11 11 11 10 9 8 9 9 9 9 9 8 8 8 9 9 9 10 11 11 10 9 8 6 7 6 5 5 8 11 10 10 10 9 8 9 10 11 15 16 16 14 12 9 8 8 8 7 8 9 8 9 11
22 21 21 25 27 25 24 23 22 21 20 19 18 17 16 16 17 18 18 18 17 17 16 15 15 15 15 15 14 13 12 11 11 10 10 9 8 8 8 9 10 9 9 7 7 8 9 10 10 10 10 10 8 7 5 5 5 5 4 4 7 11 8 8 8 8 9 9 8 11 17 15 14 11 7 6 8 9 8 7 7 7 8 9 10
21 21 21 26 27 24 24 23 22 21 20 19 18 17 16 17 17 18 18 18 17 17 17 16 16 16 15 15 14 13 12 11 10 9 9 8 8 8 8 9 10 9 8 7 7 7 8 9 9 8 8 8 6 5 4 4 4 4 4 3 7 10 6 7 6 8 10 10 9 10 13 11 11 9 5 5 8 8 7 7 7 7 9 10 10
21 21 22 27 26 24 24 22 22 21 20 19 18 17 16 17 17 18 18 18 18 17 17 17 17 16 15 14 13 12 11 9 9 8 8 8 7 8 9 9 9 8 7 7 7 6 7 7 6 6 7 6 5 5 5 5 3 4 3 3 7 9 7 7 6 9 10 11 11 11 9 6 8 8 6 8 8 7 8 8 8 9 9 9 10
21 20 24 28 25 23 23 22 22 21 21 19 18 18 17 17 17 17 17 18 18 17 17 16 16 15 14 14 12 11 10 9 8 7 7 7 7 7 8 9 9 8 7 7 6 6 6 5 5 6 7 6 6 6 6 5 4 3 2 3 7 9 7 6 6 9 9 10 10 10 8 6 7 7 7 9 9 8 8 9 9 9 9 9 9
21 20 24 26 24 23 22 22 22 21 20 19 18 18 17 17 17 17 17 17 17 16 15 15 14 14 13 13 11 10 10 9 8 7 7 7 6 6 7 8 8 8 7 8 7 7 7 6 6 6 7 7 7 6 6 6 4 3 3 4 9 10 7 5 6 8 8 9 10 9 8 9 8 7 6 8 10 9 8 8 9 9 9 9 9
21 21 22 24 23 22 22 21 20 21 20 19 18 18 18 17 17 18 17 17 16 15 14 13 13 13 12 11 10 10 9 9 8 8 7 6 7 6 7 7 8 8 7 7 6 6 7 7 7 6 6 7 7 7 6 6 5 4 3 7 11 9 6 6 8 9 9 9 9 8 7 9 7 5 4 7 10 9 9 8 8 9 8 9 9
21 21 21 22 23 22 21 20 20 20 19 18 18 18 18 18 17 17 17 16 15 14 13 12 12 12 11 10 9 9 8 8 8 8 8 7 7 7 6 6 7 7 7 6 5 5 6 7 7 6 6 7 7 7 6 6 6 5 5 11 11 8 7 7 9 11 9 7 7 7 7 8 6 5 6 8 9 8 9 8 8 8 8 9 8
20 19 20 21 21 21 20 20 20 20 19 18 18 18 18 18 18 17 16 15 14 14 13 12 11 11 10 9 8 8 8 8 9 9 8 7 7 7 6 5 6 6 6 6 5 5 5 7 7 6 7 7 7 7 6 7 7 7 7 12 11 9 9 8 10 10 8 7 10 10 9 9 7 6 7 8 9 8 8 8 8 7 8 8 8
20 19 20 20 18 19 20 20 21 20 19 18 17 17 17 18 18 17 16 15 14 13 12 11 10 10 9 9 8 8 8 9 10 9 8 7 7 6 6 5 5 5 5 5 4 5 5 6 7 8 8 7 7 6 5 7 8 8 8 12 13 11 10 10 10 9 8 7 10 11 9 8 7 5 6 8 9 8 8 8 7 7 7 7 8
20 20 20 20 19 17 18 20 21 20 19 18 17 17 17 17 18 17 16 15 14 13 12 11 10 10 10 10 9 9 9 9 9 8 7 7 7 6 6 5 5 4 4 4 4 4 5 6 7 8 8 6 6 6 6 7 7 9 9 13 15 12 10 9 8 8 9 6 8 10 9 7 6 4 5 7 8 7 7 7 7 7 6 6 7
18 18 18 18 20 19 17 18 20 18 18 19 18 17 17 17 17 17 16 16 15 14 13 12 12 11 11 11 10 10 9 9 9 8 7 7 7 6 6 5 4 4 4 4 4 5 6 7 9 8 7 6 6 6 6 6 6 8 9 14 13 9 10 8 7 8 9 6 5 6 7 5 4 5 6 6 6 7 7 7 7 6 6 6 6
17 18 18 17 18 19 17 17 18 16 16 18 18 16 17 17 17 18 16 16 16 15 14 13 12 12 11 11 11 11 10 10 9 9 9 8 7 5 5 5 4 4 3 3 3 4 5 7 9 8 6 5 6 6 6 5 5 7 9 12 12 8 10 6 6 9 8 7 5 3 4 3 3 6 7 6 6 6 6 6 6 6 5 5 6
17 17 17 17 18 16 14 16 16 16 17 17 16 15 18 17 16 18 17 17 16 15 15 13 13 13 12 12 13 12 11 11 10 10 11 10 9 6 5 5 3 3 2 2 2 3 5 6 8 8 6 6 5 6 6 6 5 6 7 10 10 7 7 3 3 6 7 8 5 3 3 1 4 7 7 7 6 4 5 7 6 6 5 5 6
16 16 16 14 16 16 14 16 16 17 16 15 14 13 17 17 15 17 17 17 16 14 15 14 13 14 14 13 13 13 12 12 10 10 11 11 9 8 6 6 4 3 2 1 2 3 5 6 7 8 7 6 7 6 6 7 6 5 7 8 8 7 5 4 3 6 8 7 5 3 3 2 6 8 7 6 5 3 5 6 6 6 5 5 5
16 19 18 14 15 16 14 15 16 16 14 14 14 14 17 17 15 16 17 17 15 14 15 13 13 14 15 14 12 11 11 10 9 9 10 10 9 9 8 8 5 4 3 2 2 4 5 5 7 8 8 7 6 8 8 8 7 5 6 5 5 6 6 5 4 7 8 5 5 4 3 4 8 9 7 5 4 4 5 4 5 6 5 5 5
17 18 19 18 17 17 17 16 16 15 13 15 16 14 16 16 14 14 16 16 14 15 15 14 15 15 16 15 10 9 9 7 8 9 8 8 9 10 10 9 7 6 5 4 3 4 5 6 7 9 9 7 6 8 9 10 8 5 6 2 2 5 5 5 4 6 6 5 5 4 2 6 10 11 8 6 4 4 4 3 5 6 6 5 5
20 19 22 22 20 20 20 18 17 16 14 15 16 15 17 17 14 13 15 16 16 16 16 15 16 15 14 14 10 10 10 8 9 9 8 9 10 11 11 10 10 9 7 6 6 5 6 9 8 8 8 6 7 7 5 6 6 4 5 4 4 4 3 5 5 4 3 3 4 4 3 6 10 11 8 6 5 5 4 3 4 4 7 7 4
18 17 21 23 25 25 22 20 18 16 15 15 15 16 17 16 13 13 13 15 17 17 17 14 14 16 16 14 11 11 11 9 11 11 10 11 11 10 10 10 12 11 8 7 7 5 6 10 8 8 8 6 6 5 2 3 4 4 4 4 6 4 3 5 6 5 3 2 3 3 3 7 9 10 9 6 4 6 6 3 3 2 5 8 5
16 14 14 17 22 24 23 23 20 16 16 15 13 12 13 12 9 11 11 12 16 17 17 15 15 17 16 13 11 11 10 9 12 11 9 11 9 7 7 9 12 11 9 8 7 5 6 8 8 7 8 7 6 5 4 3 5 6 3 3 5 4 2 3 5 6 4 3 3 3 3 6 7 8 9 7 4 6 6 5 4 2 2 6 6
15 14 12 12 15 16 18 22 20 19 22 19 15 15 14 12 10 11 11 11 13 14 15 16 16 16 14 13 12 12 13 11 11 9 9 10 7 5 4 6 10 9 8 6 6 6 6 7 6 7 6 7 7 7 6 4 5 5 3 4 5 4 3 2 4 4 4 4 4 3 3 4 6 6 8 8 5 5 6 6 5 2 1 4 6
16 15 13 12 13 13 14 15 14 16 22 22 21 20 18 17 13 12 11 10 11 12 12 12 13 14 13 13 12 12 12 10 9 8 10 11 8 6 3 3 7 8 7 5 5 6 6 7 6 5 6 6 7 8 8 6 5 5 4 4 5 5 4 2 4 4 5 6 5 4 3 4 6 6 6 7 6 5 6 6 6 4 2 3 5
17 15 11 11 12 11 11 11 11 12 12 14 18 16 15 16 13 11 9 8 9 9 9 10 10 11 11 12 12 11 9 9 9 9 9 10 8 6 3 1 4 6 6 7 8 6 4 7 6 5 6 5 6 7 8 8 7 6 5 5 5 6 5 4 4 4 6 7 6 6 4 3 4 5 6 6 7 6 6 6 6 5 3 4 5
14 12 10 11 10 10 12 11 11 10 8 10 12 10 8 10 11 11 10 10 11 11 9 8 9 10 9 11 13 13 12 11 10 9 8 7 7 5 3 2 5 6 8 8 8 5 4 4 5 6 7 6 5 5 7 7 6 6 5 5 5 5 5 5 5 5 5 7 7 6 5 4 4 4 5 6 7 8 7 7 7 5 3 4 6
12 12 14 12 9 14 15 12 10 9 8 9 9 8 7 6 7 10 11 13 14 15 13 10 12 13 11 11 11 12 13 10 9 10 8 7 7 6 6 5 7 7 8 10 8 7 6 3 3 5 7 6 6 5 5 6 3 3 4 4 3 4 4 4 5 5 5 5 7 7 6 6 6 5 6 6 7 8 9 9 8 7 5 5 5
12 15 15 12 14 17 14 11 11 10 8 8 8 8 7 6 6 8 10 9 9 13 15 12 13 12 9 9 8 8 9 8 7 8 8 8 7 7 7 7 8 6 9 12 10 9 7 4 5 5 6 6 5 5 5 5 3 2 2 2 1 0 3 4 4 5 6 6 6 6 6 7 7 7 7 6 6 8 9 10 9 9 9 7 5
14 17 15 12 15 15 13 12 12 10 10 9 9 9 7 7 7 9 9 6 6 7 8 8 9 8 6 7 7 7 6 6 6 6 7 8 7 7 8 8 7 5 9 13 11 10 7 6 8 7 8 7 4 4 4 3 3 3 2 2 1 2 1 3 4 4 6 7 7 6 6 7 6 7 9 9 8 8 9 10 11 11 11 10 8
17 19 16 14 15 14 13 13 12 11 10 10 10 9 8 8 8 7 6 5 6 5 7 9 8 7 7 7 7 7 6 5 5 6 6 6 5 6 8 9 7 5 9 14 12 11 9 9 9 7 9 8 5 4 2 2 2 1 1 0 1 1 2 2 2 3 5 6 8 8 7 7 7 8 10 10 10 10 10 11 11 12 12 11 11
20 19 17 16 15 14 13 12 12 11 10 10 9 10 9 8 8 6 5 6 6 5 7 11 11 9 8 7 7 7 6 5 5 5 4 3 3 5 7 8 7 7 11 14 13 11 10 10 9 9 9 8 6 4 3 2 2 2 3 3 2 1 0 1 1 3 5 6 6 8 10 11 11 10 10 11 11 12 12 12 12 12 12 12 12
21 20 17 16 15 14 14 12 12 11 11 11 9 9 8 7 8 6 6 7 6 6 9 12 12 10 9 9 8 7 7 6 5 5 4 3 3 3 5 6 7 8 11 13 12 10 10 11 10 9 8 7 5 3 2 3 2 0 2 2 3 3 2 2 2 3 4 5 6 8 11 12 11 11 12 11 11 13 13 14 14 13 13 13 14
20 20 18 16 16 14 14 13 12 12 12 11 9 8 8 6 7 6 7 7 7 7 9 10 9 9 9 9 9 9 8 7 5 3 2 2 1 3 4 4 6 8 10 11 11 11 11 12 11 10 9 7 5 3 3 3 2 0 1 2 4 4 5 5 5 4 4 4 5 8 9 10 9 8 10 11 11 13 14 14 15 15 15 15 15
21 20 19 16 16 15 15 14 13 13 12 12 9 8 8 6 7 7 6 7 9 9 9 10 10 10 9 8 8 7 7 6 4 2 1 2 3 3 4 3 4 7 10 10 12 12 12 13 12 11 10 7 6 5 3 3 2 1 2 4 4 4 4 4 5 5 4 3 4 7 9 10 9 7 7 9 10 12 13 14 15 15 16 16 17
20 20 19 18 18 17 17 16 14 14 12 11 9 8 9 7 7 8 7 6 7 9 11 11 10 9 8 8 8 6 6 5 4 4 2 3 4 4 5 4 3 4 7 9 13 13 13 14 13 12 10 7 7 6 5 5 3 3 4 4 4 3 4 5 5 6 6 4 3 5 9 11 10 8 8 9 10 11 12 14 14 14 15 16 17
19 20 20 20 19 19 18 17 16 15 12 10 8 7 8 7 6 7 8 9 10 12 13 11 10 9 8 8 8 7 7 5 5 5 4 5 5 5 5 4 4 4 4 6 12 12 10 12 12 11 10 8 8 8 8 6 4 5 4 1 3 4 5 6 6 6 8 6 4 4 6 8 9 9 10 11 13 12 11 11 12 13 14 16 18
19 20 20 21 21 20 20 19 17 15 12 11 9 8 9 9 8 8 11 14 15 16 15 12 11 10 9 8 8 8 7 6 6 6 7 7 6 5 5 5 4 4 5 6 8 11 10 10 11 11 10 8 8 8 10 9 6 4 2 1 2 3 4 5 5 4 5 6 5 2 3 4 5 8 9 11 12 12 11 11 10 10 12 16 17
21 20 20 21 21 21 21 20 19 17 14 13 12 11 10 11 11 11 13 15 14 15 14 12 10 9 9 9 9 9 8 8 9 9 8 6 6 8 7 7 6 5 6 8 8 8 8 8 9 9 8 7 7 8 10 9 7 5 2 1 0 1 2 3 3 3 2 2 3 1 1 2 4 6 8 7 8 9 10 12 12 11 11 12 12
23 22 21 22 21 21 22 21 21 19 18 16 14 15 14 13 12 12 13 14 12 13 12 10 8 8 9 9 9 10 9 9 10 10 8 7 8 9 8 8 8 6 5 7 8 7 6 6 5 6 6 5 5 7 9 8 8 8 3 1 1 1 1 0 1 2 2 3 3 3 2 1 3 7 9 6 5 6 8 10 12 13 13 12 12
25 25 22 23 22 22 23 23 23 22 21 19 17 17 17 15 14 14 15 14 11 12 12 10 9 10 9 9 10 10 10 10 10 10 10 9 9 9 9 8 7 7 8 9 9 6 6 8 6 4 3 3 4 6 7 7 8 7 6 4 2 1 1 1 1 1 2 5 7 7 5 4 4 6 8 6 5 6 6 6 7 10 12 12 13
24 24 23 24 26 25 26 26 24 25 23 21 20 19 18 17 16 16 15 14 13 13 12 11 11 10 9 9 10 10 10 10 10 10 10 10 10 10 10 9 7 8 10 11 11 9 8 9 7 7 7 5 4 5 5 5 3 3 5 6 5 4 2 2 0 1 1 3 5 7 8 8 6 5 6 6 7 8 6 5 6 8 9 9 10
24 23 25 27 28 27 28 28 26 26 26 23 22 21 20 20 18 16 15 14 15 16 13 12 12 10 10 9 10 10 9 10 10 11 11 10 10 10 10 10 10 10 10 11 10 10 10 9 8 10 11 10 9 7 6 5 4 2 2 3 3 4 4 4 2 0 1 2 2 3 5 6 6 6 6 7 9 10 10 9 8 8 7 7 8
27 27 30 31 28 29 28 29 27 27 27 25 24 22 21 21 19 16 16 17 17 16 14 13 13 11 11 10 10 10 10 10 10 11 11 11 11 10 10 11 13 13 12 11 11 11 10 10 9 10 10 11 12 11 9 8 7 6 4 3 4 3 2 2 2 2 2 2 2 2 3 4 5 6 7 9 10 11 12 11 9 8 8 9 9
31 32 31 30 26 31 30 29 29 28 28 27 25 24 22 21 20 17 17 21 18 16 16 14 13 12 11 11 11 10 10 10 10 10 10 10 10 10 10 11 13 12 12 11 12 11 11 11 10 10 10 10 10 11 12 11 9 7 8 6 4 4 2 1 1 2 4 4 2 3 4 4 4 6 9 10 10 9 10 11 10 9 11 12 12
34 34 31 26 24 28 31 30 30 29 30 29 26 25 24 22 20 19 19 22 20 18 18 16 14 13 12 12 11 11 10 10 10 9 9 9 10 10 10 11 11 11 11 11 11 11 11 11 10 10 10 10 10 9 11 11 9 9 11 11 9 7 6 5 5 6 4 2 3 4 6 8 7 8 10 11 11 10 10 13 12 12 12 13 14
Wind_Direction
133 144 148 147 144 142 141 141 141 141 138 139 144 148 153 158 162 165 166 163 156 151 149 144 139 138 135 136 138 135 134 131 126 124 124 128 128 121 116 112 109 103 97 96 96 93 92 89 84 80 77 80 83 83 83 88 91 92 95 92 91 92 90 90 91 93 95 94 94 91 87 83 77 75 72 76 76 69 78 78 69 70 69 66 68
137 145 147 146 145 142 143 142 141 141 138 139 142 145 151 160 163 165 165 162 158 155 150 145 140 136 134 133 133 134 134 133 132 132 133 134 136 132 121 114 111 107 102 100 99 96 95 93 85 81 82 85 86 86 87 92 96 96 95 93 93 92 92 95 96 99 100 99 99 95 89 81 74 70 67 77 73 74 85 81 76 73 70 69 69
137 142 146 147 145 143 144 142 141 141 139 140 141 144 151 160 165 166 163 159 160 157 151 147 142 136 134 132 129 131 132 131 132 132 132 133 134 134 127 116 109 108 106 100 97 95 96 94 88 86 85 85 87 87 87 90 97 97 93 95 94 94 97 96 99 102 100 96 94 91 88 81 74 66 65 77 72 77 85 80 78 73 72 71 69
133 139 147 147 146 144 144 143 142 142 140 141 142 145 151 160 164 165 162 160 161 158 152 149 144 136 136 136 131 129 128 128 130 129 127 127 128 131 126 115 107 106 106 102 98 96 95 93 89 89 88 86 87 89 89 89 92 92 95 101 100 99 101 102 102 103 102 94 86 83 82 79 72 66 70 77 74 76 78 75 74 73 74 71 69
132 141 146 147 147 145 145 144 143 143 142 142 144 147 151 159 163 163 163 163 162 159 153 149 145 137 137 139 135 132 130 131 131 128 125 120 121 122 117 111 107 106 106 102 99 98 96 93 91 91 91 88 86 92 94 91 90 90 95 100 99 98 103 108 108 109 112 105 93 85 80 79 72 68 73 72 70 73 72 71 70 71 70 68 70
134 142 145 147 147 147 146 145 145 144 143 143 144 147 151 156 159 161 165 166 163 160 153 150 145 137 139 139 138 136 132 132 128 125 121 116 112 110 110 110 107 106 105 101 98 99 98 95 96 94 93 91 87 93 94 90 92 95 95 93 95 101 104 103 104 106 111 115 110 104 97 87 77 71 72 70 70 70 69 69 70 71 69 69 73
133 139 143 147 148 149 148 146 147 144 144 144 145 147 149 151 154 159 162 163 162 159 153 151 145 139 140 140 139 136 133 128 122 119 115 114 110 106 107 108 106 104 104 101 101 102 101 100 101 98 97 94 90 89 89 92 98 102 98 87 97 108 102 95 96 95 100 108 105 116 116 94 84 81 77 74 70 69 69 69 71 74 74 72 73
132 136 140 147 150 150 149 148 147 145 145 145 146 147 147 148 150 155 159 160 159 157 154 150 145 141 142 143 142 137 133 127 122 121 117 114 111 109 108 107 107 110 110 110 112 110 104 104 106 105 102 95 90 89 90 100 108 110 100 81 101 114 101 92 87 85 90 85 72 107 125 102 94 90 81 75 67 70 75 72 76 81 80 75 75
133 136 138 147 151 151 151 149 148 146 146 146 146 146 147 148 148 152 156 157 156 154 152 149 145 144 144 143 141 138 135 130 127 126 123 119 114 111 111 113 115 118 123 125 128 124 113 110 114 115 109 100 96 96 95 101 107 109 98 74 108 120 107 92 86 87 79 66 72 102 116 103 97 97 86 79 67 69 86 88 83 81 83 82 78
133 134 137 149 152 153 153 150 149 148 147 147 146 147 147 147 147 149 152 152 152 152 150 148 146 144 144 143 141 139 136 132 129 128 127 123 117 112 112 120 124 126 130 133 137 135 128 121 116 114 112 108 105 104 104 103 101 101 95 81 115 128 117 96 93 88 73 75 94 112 116 108 101 101 84 86 81 72 94 101 83 74 78 83 82
133 133 138 151 153 154 153 151 151 149 149 148 149 148 146 146 145 146 147 148 147 148 147 147 146 144 144 145 144 141 137 132 130 128 127 124 118 112 112 123 132 135 135 139 141 138 137 130 121 121 121 113 109 109 112 111 97 89 96 103 124 134 115 83 78 62 64 87 110 117 117 105 86 72 49 95 100 79 90 89 75 79 81 84 84
131 132 142 152 153 155 153 152 152 151 151 150 151 147 144 145 144 144 144 144 144 144 145 146 146 146 146 147 147 144 139 134 131 129 129 129 121 115 117 126 135 137 135 137 138 139 140 137 128 125 123 115 115 112 113 120 100 81 87 110 125 129 105 79 64 48 66 95 114 123 122 101 64 49 65 106 106 87 86 82 80 84 84 88 86
129 133 146 152 152 156 154 154 155 154 153 152 152 147 145 145 144 144 144 143 143 143 146 147 148 148 148 149 151 148 144 139 137 136 137 133 122 117 120 125 133 134 131 128 129 135 135 135 124 117 120 120 119 107 108 113 92 77 65 106 130 130 113 92 64 52 81 100 115 128 121 101 67 58 86 106 109 101 92 89 90 86 84 88 87
130 133 144 150 152 155 155 156 157 156 155 155 153 149 147 147 148 147 146 146 144 146 148 149 150 149 150 152 153 150 148 146 146 144 143 140 133 127 125 125 128 131 132 130 130 130 127 126 119 119 123 122 118 104 99 92 77 77 68 124 144 139 120 91 54 51 97 102 104 115 97 86 69 58 75 101 113 109 103 99 96 91 88 88 86
132 134 141 150 152 155 157 158 159 158 157 156 155 153 152 151 151 150 149 150 149 150 150 151 150 149 153 155 155 152 153 155 151 150 153 148 142 140 133 127 128 133 134 134 137 134 130 129 125 127 123 118 117 107 95 73 69 77 90 143 150 139 106 72 51 58 99 106 104 105 85 82 68 58 79 107 118 114 111 105 101 99 93 92 89
132 134 140 148 153 156 157 159 161 161 160 159 159 157 156 155 155 154 153 153 152 152 152 152 151 153 157 156 158 157 161 163 156 154 156 150 142 146 141 132 133 134 131 127 132 141 143 140 136 134 128 125 123 117 101 70 75 78 104 147 149 129 96 78 68 72 94 107 123 119 95 92 80 89 104 112 120 118 116 109 107 104 98 94 92
133 134 138 145 152 157 157 161 163 164 163 161 163 162 161 160 158 158 158 158 154 154 155 155 156 158 159 159 161 162 169 169 163 159 157 151 144 146 146 139 137 134 129 120 127 151 159 154 148 142 139 139 135 129 107 80 86 85 111 144 142 116 94 83 78 83 97 100 117 115 94 93 96 107 109 115 124 122 121 116 111 107 104 99 95
135 139 140 142 147 157 161 164 165 165 165 164 166 167 166 164 163 163 162 162 159 158 159 158 161 162 161 161 159 159 165 166 165 162 153 149 145 146 149 146 140 134 128 118 128 159 170 164 156 147 147 152 148 144 117 95 97 95 115 137 128 109 91 81 77 85 100 99 108 105 91 94 100 104 101 115 126 126 124 120 117 112 109 103 101
138 141 140 144 148 157 165 167 167 167 165 165 169 171 172 170 168 167 167 167 165 163 162 162 165 168 164 158 159 155 154 157 159 156 149 148 146 147 153 154 148 140 137 127 127 155 171 164 158 153 157 161 153 150 128 107 109 108 120 131 122 105 87 74 71 94 110 108 101 90 85 95 94 89 101 118 125 128 128 125 123 117 110 107 108
134 138 140 149 154 158 164 165 166 167 167 170 171 173 176 175 173 171 172 171 167 166 166 170 169 168 166 158 156 151 150 155 156 155 154 153 151 153 161 167 163 153 152 146 134 148 168 167 162 161 164 161 142 141 130 112 118 119 124 136 133 106 78 58 59 98 124 131 104 73 64 78 90 97 112 126 129 130 131 130 128 122 117 112 111
130 136 145 149 157 160 159 159 161 164 169 175 171 172 178 179 178 175 176 176 172 171 173 176 173 170 169 162 154 152 156 160 159 163 164 159 159 167 171 176 175 164 159 154 146 152 168 172 168 167 172 171 149 135 128 116 124 132 132 140 146 113 78 66 71 92 128 144 121 84 40 36 125 122 125 134 135 137 136 136 134 130 128 117 113
131 136 151 153 154 154 155 157 162 166 169 175 172 174 178 176 181 180 180 181 176 176 179 182 182 177 171 169 167 159 156 163 166 167 169 166 168 183 186 184 182 172 160 152 164 173 177 180 181 183 187 190 177 152 138 136 136 148 151 144 143 115 87 102 102 94 132 142 127 102 43 37 147 129 131 140 142 144 134 138 139 138 140 127 122
133 143 153 158 153 146 151 155 158 165 167 173 173 177 178 174 180 182 182 183 176 179 186 190 193 187 178 180 185 177 164 168 173 169 171 171 174 188 194 192 192 182 167 159 187 186 186 192 196 198 197 206 206 190 167 156 151 155 168 158 135 114 119 144 118 115 137 137 121 86 48 119 137 125 135 143 144 141 136 145 145 145 151 139 135
140 152 153 161 158 148 150 157 161 163 167 172 171 175 178 177 179 182 182 179 176 183 188 192 198 192 186 190 198 197 183 176 177 171 171 177 181 188 197 202 199 196 201 202 194 185 193 204 205 205 201 204 213 213 209 188 164 145 156 160 140 139 151 150 109 119 133 116 93 61 56 143 139 132 144 152 151 151 148 157 152 151 159 153 151
149 155 158 166 162 155 156 164 167 165 174 175 174 180 182 181 180 184 182 174 177 189 188 187 197 199 195 195 194 194 197 194 184 171 171 183 188 189 201 208 204 210 218 213 222 212 200 208 209 205 199 196 215 234 232 203 177 155 151 139 155 156 157 162 135 115 118 97 75 53 83 155 152 144 150 154 156 166 164 164 157 159 166 164 164
154 158 161 166 163 162 162 163 165 166 177 179 180 184 183 184 182 184 184 178 184 200 202 195 200 207 207 203 190 181 191 198 186 179 179 184 190 193 202 207 204 208 207 204 236 250 198 200 208 202 200 202 226 247 243 186 171 182 178 169 174 156 149 170 154 116 105 87 74 64 114 158 155 146 147 150 150 167 171 163 159 169 177 172 165
153 158 158 160 160 162 163 162 163 166 171 176 181 180 180 185 185 187 185 180 186 201 208 204 205 213 215 210 202 191 190 190 189 190 186 185 195 203 205 206 203 202 197 193 221 246 198 194 203 201 205 208 218 228 221 186 178 187 190 177 183 183 171 169 161 157 170 151 103 81 125 152 151 141 144 150 139 159 171 172 177 206 190 178 168
145 152 153 154 154 158 162 157 158 164 165 170 178 177 182 187 188 195 192 182 183 188 194 198 204 213 216 207 201 199 196 192 193 194 183 178 186 198 201 204 203 200 194 181 188 217 206 194 198 200 205 204 204 207 204 224 207 186 186 197 199 213 206 149 145 154 163 179 154 119 116 145 153 145 148 156 138 149 167 175 194 247 214 188 177
143 150 160 162 153 153 155 150 153 162 162 164 168 171 180 184 183 195 202 200 193 185 188 196 199 204 207 203 201 198 196 190 187 186 171 162 163 184 181 190 194 185 179 174 179 200 200 192 196 198 201 206 203 201 200 215 230 210 200 206 198 206 215 150 144 152 163 186 176 141 113 133 152 155 154 157 147 141 160 175 197 212 218 200 183
151 160 175 175 157 149 145 141 145 150 156 161 160 164 173 179 182 185 188 197 196 183 184 193 193 192 189 195 206 207 201 187 174 171 165 156 158 174 140 152 179 163 158 166 189 191 180 187 193 194 200 212 209 200 199 203 218 227 229 224 209 204 203 176 178 183 178 181 179 162 139 125 144 164 170 164 158 144 149 169 189 200 203 194 180
156 165 169 151 143 144 137 128 128 127 136 149 148 151 163 169 170 172 174 180 188 184 187 189 187 190 183 188 203 210 201 180 176 175 167 155 147 153 133 169 199 178 179 174 181 178 168 191 186 192 206 204 210 199 194 201 205 212 227 235 229 215 202 197 201 199 193 189 188 185 172 153 146 162 176 178 176 166 158 164 181 198 194 181 185
153 153 137 133 142 136 122 111 122 126 96 108 127 128 143 151 151 160 161 158 172 183 193 188 179 187 186 190 197 197 189 181 187 181 171 158 142 146 153 225 243 229 223 190 174 164 158 199 188 197 211 198 211 204 180 190 202 200 214 231 234 234 220 208 210 218 215 200 198 206 195 192 196 179 176 182 187 183 179 177 182 193 180 179 195
148 138 131 134 122 108 110 105 118 127 87 89 106 104 110 110 126 141 141 148 161 170 175 175 178 185 185 188 191 189 186 180 180 170 163 162 151 165 168 196 229 230 224 201 181 167 161 187 194 193 203 196 210 211 179 181 182 187 218 227 218 237 248 228 216 227 237 215 203 212 216 216 217 204 187 183 192 195 195 193 191 196 196 188 189
144 132 133 126 108 105 110 110 115 114 94 97 91 88 98 87 100 106 110 130 145 157 166 170 177 179 177 181 171 169 179 174 170 164 164 164 159 182 186 192 211 211 206 200 186 173 163 167 179 179 187 189 191 190 182 176 144 118 199 211 101 250 269 260 241 233 244 240 216 213 226 227 219 213 207 198 197 201 204 204 199 199 205 206 200
137 134 137 122 115 117 116 116 120 112 100 103 91 89 93 78 84 85 84 96 100 118 134 147 163 157 156 171 151 142 158 163 154 145 153 160 170 195 193 191 201 195 193 192 180 172 170 171 174 172 178 179 172 180 182 173 143 100 126 128 72 57 9 286 259 242 249 246 239 237 229 220 222 227 219 212 209 206 208 210 207 206 208 213 219
140 140 140 127 122 127 123 119 118 112 105 101 93 93 91 75 80 82 80 101 107 90 81 93 106 114 135 156 149 141 146 148 133 129 139 152 183 191 178 183 189 177 182 182 171 168 175 178 176 164 162 163 162 171 159 176 212 236 230 213 316 3 25 333 274 256 265 255 248 247 238 228 232 239 231 223 221 218 214 213 213 212 212 214 221
146 144 144 135 129 131 128 122 115 113 107 102 97 93 89 81 88 87 77 93 99 94 100 94 81 84 105 121 131 137 137 136 133 132 131 145 195 185 168 175 178 178 179 174 166 166 175 178 175 163 157 160 165 154 129 148 209 246 253 260 281 279 199 8 316 265 265 259 254 251 251 244 230 230 233 226 226 230 227 221 219 216 215 216 220
149 146 145 138 133 134 131 128 123 120 113 108 102 98 98 87 86 80 77 91 84 73 92 91 78 72 81 90 97 102 105 110 124 135 138 155 193 181 169 168 167 173 172 170 169 167 175 177 169 162 156 156 159 140 112 120 113 210 265 269 274 271 252 279 303 286 276 270 266 260 264 259 242 233 228 224 231 238 234 226 222 219 218 219 221
150 145 145 141 138 139 136 134 128 127 123 116 109 108 109 93 93 93 83 89 83 70 73 81 83 77 73 76 82 85 87 91 96 104 141 154 148 161 168 169 169 175 172 171 176 175 178 176 166 161 150 140 159 161 133 132 127 159 296 296 296 290 273 270 267 272 284 291 288 274 274 278 275 261 232 225 235 240 237 228 220 220 223 223 224
152 145 146 149 145 144 141 140 137 134 131 128 127 127 124 111 109 104 83 78 82 80 77 82 89 85 80 79 80 85 86 91 96 72 72 79 75 122 139 139 156 177 183 185 187 183 177 174 170 170 161 147 167 179 187 198 189 236 278 280 290 306 303 284 259 251 249 264 298 286 280 280 285 294 266 244 242 242 241 232 222 223 227 227 228
154 150 154 157 153 153 146 145 145 139 140 143 147 144 136 127 116 111 100 94 106 105 93 87 86 81 79 81 80 87 90 89 98 99 106 96 82 92 112 114 91 129 177 198 203 192 178 180 178 177 182 185 191 209 242 230 198 226 256 271 272 287 309 300 280 261 246 246 295 301 294 287 282 293 294 277 268 259 247 235 228 229 231 231 233
157 160 166 164 159 157 151 150 151 147 150 149 143 129 122 122 122 126 110 87 97 109 100 90 88 84 76 79 81 83 87 88 93 96 101 105 96 73 85 118 110 105 136 187 208 202 184 183 183 183 193 201 202 212 220 207 201 225 227 277 288 286 297 301 303 280 255 251 281 317 312 296 292 306 306 291 282 274 262 250 239 236 235 232 235
162 171 177 171 166 161 154 155 155 153 152 143 134 114 104 108 103 105 102 88 88 97 98 92 90 88 82 80 84 82 82 86 94 98 90 92 98 87 86 104 113 121 125 138 186 202 198 195 195 197 201 207 212 212 206 196 196 215 194 120 308 308 301 303 316 299 260 245 253 302 352 333 322 321 310 299 286 270 265 264 257 250 243 238 245
165 186 191 178 172 166 159 159 159 157 150 141 142 134 118 109 99 98 103 99 94 93 93 91 88 88 85 81 78 80 78 70 77 89 87 80 81 91 100 99 104 124 131 132 147 174 193 199 201 205 209 212 213 211 211 203 189 193 176 106 78 338 308 300 314 311 275 219 229 250 346 340 331 314 305 311 303 279 272 270 266 270 264 248 252
173 196 200 186 179 171 166 163 161 159 152 147 149 145 134 121 112 107 102 101 103 102 100 100 101 94 87 85 80 80 83 76 75 82 84 82 74 78 93 99 105 109 118 138 139 139 157 165 179 202 209 209 204 208 217 213 201 207 217 119 113 249 261 292 320 296 239 217 230 227 226 279 297 306 314 331 327 298 291 286 277 280 282 265 251
184 202 205 194 184 173 168 165 164 161 155 154 155 148 140 134 129 122 119 124 131 126 122 123 117 105 94 91 88 85 87 86 83 83 85 88 80 73 81 88 89 76 74 101 108 99 121 135 141 160 172 190 190 190 202 209 209 215 223 230 250 255 157 120 331 279 242 241 235 231 241 256 269 302 320 329 326 318 315 314 306 302 300 285 266
189 205 215 204 187 174 169 166 165 161 157 157 157 151 145 144 142 138 140 146 139 127 123 122 116 112 108 100 95 92 91 89 87 86 87 88 84 77 77 84 89 77 69 79 81 66 77 98 99 98 90 85 119 148 171 192 210 223 222 232 255 263 240 224 234 33 296 261 239 237 250 255 257 283 306 309 313 321 327 332 325 321 318 299 280
189 205 228 219 189 175 170 165 165 163 160 160 159 154 152 153 152 150 152 145 129 124 125 126 125 123 120 113 105 99 94 94 92 90 90 91 91 86 80 83 91 93 85 80 81 73 73 75 72 79 82 80 85 102 131 143 128 121 157 197 236 261 269 255 232 282 331 307 269 256 266 272 279 286 295 309 314 314 315 318 317 316 324 317 296
190 200 228 228 193 174 171 166 165 165 162 162 160 157 158 158 156 157 151 136 130 133 135 134 134 135 129 121 114 105 101 100 95 92 91 89 89 87 82 80 85 93 94 90 92 91 87 83 76 75 77 78 80 85 91 95 97 98 101 157 184 182 236 244 206 216 239 267 286 271 262 271 286 292 298 310 313 311 310 310 313 311 309 305 299
198 195 216 229 200 175 170 167 165 166 165 165 162 159 163 162 159 162 147 135 140 146 142 141 142 140 131 123 118 113 111 106 101 98 95 92 90 87 85 83 84 89 93 95 98 99 97 96 94 88 82 79 79 83 83 80 80 76 67 65 94 121 137 181 171 236 232 227 260 316 321 305 293 300 310 317 319 313 309 306 300 293 291 289 290
198 193 200 219 210 181 171 169 166 167 167 166 164 162 166 165 163 164 149 142 152 152 145 148 150 145 139 136 131 126 125 120 116 112 108 106 102 95 93 91 92 93 94 97 98 98 98 98 99 97 93 86 81 87 91 87 82 78 72 61 53 59 58 47 33 15 10 2 342 337 329 322 312 312 319 323 323 313 302 299 289 282 284 280 277